Flag for Canada Weather past 2 weeks in Edmundston, New Brunswick, Canada

Now
64 °F

Mild.


Feels Like: 64 °F
Forecast: 58 / 77 °F
Wind: 6 mph from Southwest

Location: St Leonard

Current Time: May 25, 2015 at 11:03:06 PM

Latest Report: May 25, 2015 at 10:00 PM


Visibility: N/A

Pressure: 30.06 "Hg

Humidity: 54%

Dew point: 47 °F

Location of EdmundstonLocation

Historic Weather in Edmundston — Graph

°F

Edmundston temperature yesterday

Maximum temperature yesterday: 69 °F (at 7:00 PM)
Minimum temperature yesterday: 38 °F (at 3:00 AM)
Average temperature yesterday: 55 °F

Past Weeks' High & Low Weather Summary

 TemperatureHumidityPressure
High79 °F (May 25, 4:00 PM)100% (May 10, 11:00 PM)30.32 "Hg (May 10, 11:00 PM)
Low29 °F (May 23, 1:00 AM)20% (May 15, 5:00 PM)29.46 "Hg (May 12, 9:00 PM)
Average52 °F66%29.98 "Hg
* Reported May 10 9:00 PM — May 25 9:00 PM, Edmundston, Weather by CustomWeather, © 2015

Note: Actual official high and low records may vary slightly from our data, if they occured in-between our weather recording intervals... More about our weather records

Advertising

Edmundston weather history for previous 24 hours

 ConditionsComfort  
Time TempWeatherWind HumidityBarometerVisibility
9:00 PM
Mon, May 25
70 °FMild.13 mph44%30.04 "HgN/A
8:00 PM72 °FMild.10 mph37%30.02 "HgN/A
7:00 PM76 °FMild.15 mph32%30.00 "HgN/A
6:00 PM77 °FMild.14 mph32%29.99 "HgN/A
5:00 PM77 °FPleasantly warm.12 mph31%29.98 "HgN/A
4:00 PM79 °FPleasantly warm.15 mph27%29.98 "HgN/A
3:00 PM78 °FPleasantly warm.13 mph28%29.99 "HgN/A
2:00 PM76 °FMild.14 mph32%30.01 "HgN/A
1:00 PM75 °FMild.14 mph32%30.02 "HgN/A
12:00 PM70 °FMild.12 mph45%30.04 "HgN/A
11:00 AM66 °FMild.10 mph52%30.04 "HgN/A
10:00 AM60 °FCool.8 mph65%30.05 "HgN/A
9:00 AM53 °FCool.5 mph82%30.06 "HgN/A
8:00 AM48 °FCool.7 mph88%30.04 "HgN/A
7:00 AM44 °FQuite cool.6 mph87%30.05 "HgN/A
6:00 AM42 °FQuite cool.2 mph89%30.04 "HgN/A
5:00 AM41 °FQuite cool.2 mph91%30.03 "HgN/A
4:00 AM43 °FQuite cool.1 mph89%30.03 "HgN/A
3:00 AM42 °FQuite cool.No wind89%30.01 "HgN/A
2:00 AM46 °FCool.3 mph74%30.00 "HgN/A
1:00 AM47 °FCool.2 mph76%30.00 "HgN/A
12:00 AM50 °FCool.2 mph67%29.99 "HgN/A
11:00 PM
Sun, May 24
55 °FCool.3 mph55%29.98 "HgN/A
Weather by CustomWeather, © 2015

See weather overviewHow to use our weather pages